Weather in Mandrovo

Russia / Belgorod Oblast     50°17′46″N   38°15′02″E
temp.,
°C
wind,
m/s
gust,
m/s
humid.,
%
clouds,
%
prec.,
mm/h
press.,
hPa
HPBL,
m
17 september, fri
fri1700:00+8ne22515 0.0 101910
03:00+7ene115611 0.0 101910
06:00+7e115996 0.0 101910
09:00+14sse113841 0.0 1018277
12:00+19sw233081 0.0 10171613
15:00+21sw332554 0.0 10151955
18:00+18nw3534100 0.0 1015110
21:00+16ene3539100 0.0 1014111
18 september, sat
sat1800:00+15ene5942100 0.0 1015271
03:00+14e51045100 0.0 1015361
06:00+13e61049100 0.0 1015378
09:00+13e61050100 0.0 1015432
12:00+18ese7836100 0.0 1015893
15:00+19e793298 0.0 1014811
18:00+16e10164197 0.0 1013501
21:00+14ese91744100 0.0 1013488
19 september, sun
sun1900:00+14ese81544100 0.0 1013470
03:00+14ese7154572 0.0 1012533
06:00+14se71450100 0.0 1012562
09:00+11se61272100 1.1 1012524
12:00+11se61191100 2.0 1012338
15:00+12se51094100 5.3 1011543
18:00+14sse4993100 0.7 1010450
21:00+14ese379678 1.2 1010314
20 september, mon
mon2000:00+12sse2498100 1.1 1009108
03:00+13sse229863 1.4 100945
06:00+11s339587 0.5 100952
09:00+13sw3690100 0.6 1009276
12:00+18sw465853 0.0 10091040
15:00+20ssw6104192 0.1 10092353
18:00+17wsw4746100 0.0 1010347
21:00+13nnw365614 0.0 1012356
21 september, tue
tue2100:00+9w22706 0.0 101315
03:00+8wsw237888 0.0 101471
06:00+10sw377299 0.0 1014423
09:00+11wsw5671100 0.0 1015759
12:00+13wsw5663100 0.0 10151107
15:00+12wsw5759100 0.0 10151383
18:00+11wsw3565100 0.0 1015519
21:00+9wnw2270100 0.0 101566